カタログに戻る

STARLINK-4183

運用中通信VLEO
NORAD 53014·PAYLOAD·🇺🇸 United States

打ち上げ Jul 7, 2022 から Cape Canaveral Space Force Station

Loading…

次のパス (今後24時間)

TLE

最新Source: CelesTrak SupGP

元期: Sep 14, 2026, 21:53 UTC

1 53014C 22076AE  26257.91229167 -.00002703  00000+0 -77351-4 0  2576
2 53014  53.1588 304.6277 0001247  85.9301 186.9766 15.35393560    18

AllMySatでSTARLINK-4183をリアルタイム追跡

Download on the App Store